Location: Banff
(51.1667°N, 115.5667°W)
Time: 11:47:33
(UTC+00:00)

Courier 1B Rocket - Pass Details

Date: 02 December 2020
Orbit: 920 x 1202 km, 28.2° (Epoch: 17 January)

Event Time Altitude Azimuth Distance (km) Brightness Sun altitude
Rises 13:29:12 0° 226° (SW) 4,083 7.9 -17.4°
Reaches altitude 10° 13:34:29 10° 197° (SSW) 3,128 7.6 -16.6°
Maximum altitude 13:36:55 12° 178° (S) 2,997 7.7 -16.3°
Drops below altitude 10° 13:39:21 10° 160° (SSE) 3,116 8.1 -15.9°
Sets 13:44:35 0° 130° (SE) 4,044 9.5 -15.1°
